Weather in Roscommon

Ireland     53°37′55″N   8°11′25″W
temp.,
°C
wind,
m/s
gust,
m/s
humid.,
%
clouds,
%
prec.,
mm/h
press.,
hPa
HPBL,
m
12 april, mon
mon1201:00+3nw2398100 0.2 1027122
04:00+3w2596100 0.1 1027118
07:00+2w279697 0.1 1028232
10:00+7w358199 0.1 1028765
13:00+8wnw3582100 0.8 1029802
16:00+9wnw3574100 1.3 10291112
19:00+7nw368599 2.5 1030300
22:00+3nw119132 0.1 103110
13 april, tue
tue1301:00+2w119296 0.1 103210
04:00+1w119350 0.0 103210
07:00+1w119378 0.0 103310
10:00+7wsw11825 0.0 1033331
13:00+11sw116110 0.0 10331196
16:00+12ssw015375 0.0 10321685
19:00+10nne0163100 0.1 103215
22:00+7ne2480100 0.0 103383
14 april, wed
wed1401:00+6ene2789100 0.1 1033171
04:00+6e2489100 0.0 1033106
07:00+4e229261 0.0 103344
10:00+9ese34755 0.0 1034481
13:00+12se346149 0.1 10321505
16:00+11se2468100 0.2 1031538
19:00+10ese3575100 0.3 1031131
22:00+8se258482 0.0 1032135
15 april, thu
thu1501:00+4ese23955 0.0 103238
04:00+2ese22955 0.0 103238
07:00+1ese22940 0.0 103241
10:00+7se35730 0.0 1032401
13:00+12sse56585 0.0 10311501
16:00+13sse565478 0.0 10291877
19:00+10s487196 0.1 1029417
22:00+5sse23905 0.0 103047
16 april, fri
fri1601:00+2sse2593100 0.0 103089
04:00+2se3889100 0.0 1030176
07:00+2se2887100 0.0 1030200
10:00+8sse5871100 0.0 1030677
13:00+11sse6759100 0.0 10291606
16:00+10s676395 0.1 10291282
19:00+9sse5866100 0.1 1028809
22:00